Simultaneous Nadir Overpasses (SNOs) Predictions

Prediction of SNOs between FY3D and TERRA Satellite Orbit:

Table of predicted SNOs for the next 14.0 days since TLE Epoch: 8/28/2021
Index Date (FY3D) Time (FY3D) Lat,Lon (FY3D) SZA (FY3D ) Date (TERRA) Time (TERRA) Lat,Lon (TERRA) SZA (TERRA ) Distance(km) Time Diff (sec)
1 08/28/2021 22:56:17 70.97,-165.57 61.52 08/28/2021 22:57:24 70.85,-163.40 61.39 79.87 67
2 08/28/2021 23:46:44 -70.12, 3.14 119.35 08/28/2021 23:47:05 -70.13, 3.17 119.33 2.14 21
3 08/29/2021 00:37:27 69.98, 170.66 60.53 08/29/2021 00:36:33 69.98, 170.59 60.53 2.74 54
4 08/31/2021 16:03:02 -70.11, 119.10 118.39 08/31/2021 16:03:31 -70.12, 119.02 118.39 2.88 29
5 08/31/2021 16:53:46 70.03, -73.46 61.54 08/31/2021 16:52:58 70.01, -73.48 61.52 1.86 48
6 09/03/2021 08:19:20 -70.16,-125.03 117.37 09/03/2021 08:19:55 -70.15,-125.05 117.38 1.26 35
7 09/03/2021 09:10:03 70.02, 42.49 62.51 09/03/2021 09:09:22 70.04, 42.44 62.53 2.65 41
8 09/06/2021 00:35:38 -70.15, -9.08 116.38 09/06/2021 00:36:20 -70.17, -9.13 116.37 2.70 42
9 09/06/2021 01:26:22 70.07, 158.36 63.55 09/06/2021 01:25:47 70.06, 158.35 63.54 1.51 35
10 09/08/2021 16:51:57 -70.20, 106.78 115.33 09/08/2021 16:52:45 -70.18, 106.77 115.35 2.31 48
11 09/08/2021 17:42:40 70.07, -85.69 64.55 09/08/2021 17:42:12 70.07, -85.75 64.55 2.24 28



Historial Predications of SNOs between FY3D and TERRA
